Theta_e
314 313 316 321 319 328 337 346 347 349 351 348 345 345 347 340 340 332 341 341 339 340 338 330 330 330 329 322 325 328 331 333 334 333 329 329 329 327 326 325 325 327 330 333 336 336 337 339 338
313 316 317 312 317 320 322 339 345 346 346 344 344 344 340 338 349 346 346 345 338 341 338 331 331 333 332 323 325 328 331 331 331 330 330 331 331 330 328 327 326 329 332 334 336 337 337 339 340
315 318 313 313 312 318 324 337 338 340 343 345 345 341 340 345 348 344 345 345 344 348 339 333 333 335 333 324 325 328 330 330 329 329 330 332 333 333 332 330 328 328 331 333 335 336 336 338 339
317 313 309 314 317 315 324 333 337 342 344 343 341 347 340 343 344 345 346 344 349 349 340 334 334 336 334 324 326 328 329 329 328 330 331 333 333 334 335 336 335 331 329 330 332 333 333 335 334
317 307 311 314 314 314 315 321 335 343 344 345 345 347 340 349 346 348 345 344 345 347 341 335 335 337 334 325 327 329 329 328 328 328 330 331 332 332 333 335 336 337 337 333 329 329 330 331 332
311 307 312 315 314 314 314 319 332 335 343 344 343 341 349 349 349 349 346 343 344 344 341 337 335 337 335 325 328 329 329 328 328 328 328 328 329 328 328 328 329 329 330 334 336 335 332 332 334
312 309 314 315 314 317 319 322 343 342 343 345 340 341 347 347 346 347 344 345 346 346 343 340 337 337 337 326 328 328 330 330 329 328 327 327 327 327 328 330 333 333 331 327 326 326 328 330 330
308 309 314 313 314 316 316 342 340 343 344 341 340 340 346 344 345 346 347 348 351 350 349 346 340 338 337 327 328 329 328 329 328 327 327 326 326 328 330 333 333 331 328 326 327 327 326 324 324
309 311 312 316 317 317 320 344 342 337 339 338 338 336 335 345 347 347 347 348 349 350 346 344 339 337 335 327 327 328 328 328 328 328 328 328 327 328 331 333 331 327 323 321 320 324 326 326 326
310 309 315 315 316 316 322 334 344 340 339 338 340 335 341 345 348 347 346 346 345 343 341 336 335 336 335 328 328 329 329 329 328 328 328 328 327 327 329 333 334 333 330 321 317 317 320 323 324
313 313 314 316 315 314 319 331 339 338 340 336 341 332 338 343 347 347 346 344 341 340 341 337 332 330 329 326 327 328 329 330 329 328 328 328 328 330 333 333 336 337 335 328 322 318 315 316 317
316 314 313 318 317 316 318 325 333 335 338 338 341 340 343 345 343 340 345 346 344 342 342 342 342 342 333 328 328 327 328 329 330 329 329 328 328 328 339 341 341 341 338 328 324 326 327 329 329
315 316 314 316 316 317 313 316 324 339 344 342 341 342 343 343 343 343 342 341 345 345 342 337 335 333 333 330 330 330 328 328 329 330 330 330 329 328 338 341 341 341 341 338 326 325 328 330 334
317 316 316 315 317 317 318 316 322 344 341 340 338 337 336 336 337 338 338 339 341 341 341 340 339 334 331 335 333 333 332 332 332 331 330 330 330 331 331 334 341 341 340 340 340 336 332 334 336
317 318 314 316 317 317 316 315 329 344 340 338 336 335 334 333 334 334 335 335 340 344 344 342 339 339 338 333 333 335 338 336 334 333 333 332 332 333 336 339 339 342 341 340 339 340 341 340 341
315 312 314 314 316 316 315 316 333 342 341 338 335 334 332 331 330 331 332 335 337 338 337 342 342 341 338 339 338 337 339 341 340 340 340 340 340 340 340 341 341 342 344 342 341 341 342 342 342
312 316 316 316 315 317 315 337 343 341 340 338 333 332 331 329 328 328 329 331 335 337 335 337 340 341 341 344 344 342 343 345 347 347 347 348 346 343 342 342 342 343 343 343 342 341 341 339 342
318 318 317 316 316 315 323 340 343 340 339 336 332 329 328 328 326 326 327 331 336 336 336 335 335 336 339 338 340 337 338 339 343 344 344 345 347 348 347 344 344 343 343 343 340 340 340 340 345
317 318 319 318 317 317 322 344 341 337 334 332 330 328 326 326 324 324 324 327 328 330 333 334 337 338 339 335 335 336 341 341 339 340 342 344 345 346 346 348 345 343 343 342 343 342 341 343 342
319 319 318 319 318 315 333 338 337 335 333 329 328 327 324 321 321 321 321 321 322 324 326 330 330 334 336 337 339 340 343 340 338 338 339 341 342 344 344 345 344 341 340 339 339 340 336 334 336
317 317 318 319 317 315 322 329 340 333 329 327 325 324 322 319 319 319 318 319 319 320 321 322 324 326 328 332 334 334 334 335 333 332 333 335 338 341 343 344 342 342 341 337 335 335 335 332 331
319 318 318 318 315 319 314 316 337 336 332 328 325 323 321 319 318 318 317 316 319 319 319 319 320 321 323 324 326 326 325 326 326 328 329 329 333 335 336 338 340 339 339 336 335 334 335 332 332
319 318 319 318 314 314 313 311 318 334 335 330 326 323 321 319 318 317 317 318 319 321 320 319 318 318 320 321 321 322 323 324 324 324 324 325 325 327 329 332 333 333 332 332 330 332 333 333 333
317 318 314 311 311 315 314 315 315 335 334 330 328 325 323 320 319 319 320 320 320 321 320 319 318 316 317 318 320 320 321 320 320 321 321 322 323 324 326 326 326 329 333 335 334 334 333 332 331
315 315 317 317 313 317 315 322 316 331 331 330 328 325 323 322 320 318 319 319 319 318 318 317 315 313 311 312 313 314 314 313 313 314 314 314 314 315 317 321 324 327 327 328 332 333 333 333 331
316 315 317 320 316 315 319 331 330 330 329 327 326 324 323 322 319 317 318 319 319 318 317 316 312 308 308 308 310 311 312 312 312 313 314 314 315 315 315 314 317 321 324 327 331 334 331 330 330
319 317 314 315 315 317 319 331 330 330 329 327 326 324 323 321 318 316 317 318 318 317 316 314 310 309 310 311 311 311 311 312 313 312 312 312 315 315 315 315 314 316 319 322 325 325 325 329 330
317 314 316 313 319 320 317 326 329 332 330 327 326 324 322 319 318 316 316 317 317 316 314 312 310 310 311 311 312 311 311 311 311 311 312 312 313 313 312 312 313 315 315 316 321 322 322 321 319
316 318 315 313 316 318 319 319 321 330 329 328 326 325 322 319 318 316 317 317 317 316 313 311 310 311 311 312 312 312 311 311 310 311 311 311 311 312 312 311 310 311 314 317 316 316 316 318 321
318 319 315 318 319 318 319 319 315 324 327 326 326 325 323 320 318 316 317 318 316 316 314 312 311 310 311 311 312 312 312 311 311 311 311 311 311 312 313 312 310 311 311 314 315 315 314 314 313
Wind_Speed
9 7 2 3 3 4 2 6 3 4 4 3 6 4 4 2 2 4 8 27 31 36 32 27 24 22 20 19 19 17 15 15 15 16 16 15 14 13 12 12 13 14 15 15 14 14 15 15 15
9 2 3 2 4 2 5 3 8 14 7 5 1 3 2 1 3 8 15 18 35 36 34 29 25 22 20 19 19 17 15 14 14 14 14 13 12 11 11 10 11 13 12 12 12 12 12 13 12
5 1 3 4 3 4 4 5 7 7 12 2 2 2 2 1 4 14 8 26 35 31 32 29 26 23 21 21 21 19 16 16 15 14 13 12 11 10 10 9 9 11 11 10 10 10 9 8 7
1 5 4 4 5 8 7 6 6 3 2 3 2 1 4 4 11 14 25 36 30 29 32 28 25 22 20 21 20 18 18 17 16 14 12 11 11 10 9 9 9 8 9 10 10 9 8 6 5
4 3 3 1 6 6 4 6 9 7 7 4 3 3 4 6 9 24 36 36 34 31 30 27 25 22 20 20 18 17 16 15 15 14 12 11 11 10 10 10 10 9 9 9 9 10 9 8 7
4 3 5 2 5 7 7 2 8 6 4 2 3 4 3 8 19 30 35 35 30 33 29 26 23 21 18 18 17 15 14 14 13 12 11 11 10 9 9 9 10 10 11 11 11 11 11 10 10
5 4 3 3 6 6 6 8 3 9 7 1 4 4 2 4 16 25 33 31 29 26 27 25 22 20 18 17 16 14 12 11 10 9 9 9 8 8 8 9 9 10 11 12 12 13 13 12 12
5 4 2 2 4 6 7 4 3 7 4 1 1 6 5 8 21 24 25 23 18 18 19 20 21 21 20 19 17 15 14 12 10 9 9 8 8 8 9 9 9 10 11 12 13 13 13 13 13
4 4 3 4 3 5 6 5 4 3 5 2 3 4 11 29 27 25 22 18 16 15 20 20 23 23 22 21 19 18 16 15 12 11 10 9 9 9 10 10 10 10 10 11 13 14 14 14 14
4 3 4 4 2 3 1 5 2 3 1 4 6 18 27 23 24 25 21 21 23 22 23 23 23 23 20 19 19 17 17 16 15 14 12 11 10 10 11 12 12 12 11 11 12 13 14 15 15
2 4 5 5 5 5 3 3 2 6 3 6 9 17 16 17 12 11 13 21 31 27 26 26 27 26 25 24 21 20 19 18 17 16 15 14 13 12 12 13 13 14 13 14 12 12 13 13 14
1 4 5 3 2 4 3 5 2 12 2 13 12 14 16 14 9 7 10 14 15 15 17 17 20 21 24 23 23 22 22 20 19 19 17 17 16 15 15 14 14 14 14 15 15 14 14 15 16
3 3 5 1 4 3 8 2 6 9 14 16 16 17 12 10 13 14 12 8 16 17 17 19 23 24 25 26 24 25 24 22 21 21 20 20 20 19 18 18 17 17 17 17 18 19 18 19 18
3 4 1 5 2 2 3 3 6 5 15 17 18 14 12 13 12 14 18 14 11 5 3 7 18 25 24 27 25 23 24 24 24 23 22 22 23 23 22 22 20 20 19 19 19 21 22 23 24
2 1 4 3 2 2 4 8 4 10 19 16 15 12 12 12 17 15 13 14 8 5 2 4 12 19 23 27 27 24 26 25 24 26 25 24 25 25 25 25 25 22 22 22 24 26 27 27 28
5 6 4 4 2 2 7 1 3 4 21 13 13 11 10 11 13 15 16 16 13 7 6 1 10 12 19 24 25 25 26 26 26 22 23 24 27 27 28 27 28 28 27 27 27 26 27 29 30
7 1 2 8 2 2 5 5 6 4 16 14 11 9 10 10 14 17 16 18 19 16 12 9 3 5 9 9 12 17 20 16 12 13 15 20 23 29 34 33 31 27 29 28 24 23 19 22 23
3 3 3 3 6 7 14 8 6 6 14 13 11 9 9 11 11 18 24 25 26 21 14 11 10 5 1 4 8 8 7 7 11 12 13 14 16 16 21 31 30 31 28 23 16 17 17 15 15
3 2 3 5 7 7 8 10 7 6 10 11 9 8 8 10 13 18 21 22 20 19 19 22 20 19 15 12 13 11 14 11 11 13 15 15 16 13 15 18 21 21 16 9 10 12 11 6 9
5 4 4 3 6 8 9 9 8 7 4 6 8 6 6 5 8 13 16 18 18 19 23 24 25 25 23 18 11 7 8 8 12 14 14 13 13 11 8 3 8 4 3 6 14 8 14 15 20
4 6 2 2 4 6 7 4 5 5 7 7 7 4 3 5 5 4 3 10 13 20 23 23 23 23 23 21 20 15 13 16 16 20 18 15 8 9 8 10 9 7 12 16 25 16 12 12 6
3 3 4 3 4 2 4 3 3 4 4 4 6 5 5 6 5 5 5 6 13 19 21 22 23 24 24 22 22 22 21 18 17 17 18 17 14 10 8 5 14 14 18 24 24 21 19 20 14
4 3 2 2 4 4 2 4 1 5 6 5 5 7 7 7 7 7 11 11 13 17 19 20 21 21 20 20 19 18 17 16 16 15 17 17 18 16 14 10 5 4 6 8 10 12 12 16 16
3 3 6 4 3 2 4 5 4 7 7 5 5 7 9 9 8 10 9 10 10 9 12 14 16 18 18 18 17 17 17 17 17 18 19 18 17 18 18 14 11 8 3 3 4 8 13 15 12
7 6 4 5 4 5 2 2 6 2 10 10 12 9 7 6 6 5 6 8 10 10 9 10 12 15 14 15 15 15 16 17 18 19 20 21 21 21 21 19 18 16 12 6 7 13 20 23 26
4 6 5 3 3 5 3 3 5 4 4 3 5 5 6 7 6 6 7 9 8 7 6 7 10 13 13 15 18 17 17 17 17 17 17 19 20 21 21 21 20 20 18 14 10 7 13 18 22
3 1 3 5 2 2 2 1 3 2 2 3 5 6 9 9 8 8 11 11 10 8 5 4 6 9 11 12 14 16 15 16 16 16 16 17 17 19 20 20 21 20 20 17 17 15 15 10 13
3 5 3 3 2 4 4 3 4 7 10 7 8 10 10 7 8 8 15 14 9 7 5 6 4 5 7 8 10 11 12 13 14 15 16 16 17 18 20 21 20 19 18 17 12 15 14 14 17
4 1 5 4 4 5 2 5 5 14 14 14 14 14 11 10 10 8 11 11 9 8 7 7 6 5 3 2 4 6 8 10 11 13 15 16 16 17 19 21 22 20 20 17 14 13 13 14 14
4 3 4 5 4 2 3 6 4 7 11 12 14 13 11 7 5 5 11 14 13 14 11 11 9 9 5 3 2 4 5 6 7 9 11 11 13 13 14 17 20 21 20 16 16 16 14 13 14
Wind_Direction
320 319 250 109 63 66 210 233 272 246 291 210 136 154 227 49 180 203 153 156 167 164 164 165 158 147 143 141 140 137 133 132 132 132 132 130 129 127 126 127 131 133 134 132 130 129 129 128 126
327 18 97 85 89 67 255 229 212 220 228 51 28 278 21 26 99 103 127 168 168 163 163 165 158 153 150 150 148 147 144 142 141 139 138 137 136 135 133 131 136 143 144 142 141 140 138 135 132
331 144 86 94 111 191 223 218 224 248 232 27 276 305 86 218 90 143 154 162 163 163 165 164 160 158 156 157 157 156 155 153 152 151 151 150 150 150 150 149 151 158 161 162 160 158 155 151 150
227 20 36 85 251 247 211 169 215 218 136 188 224 38 80 262 142 166 158 162 158 166 167 165 164 163 162 162 162 162 162 162 161 163 164 166 167 169 171 172 176 178 183 184 184 186 189 194 207
53 61 62 343 271 268 263 182 181 156 156 202 162 174 65 22 139 150 156 162 162 166 168 168 168 167 167 166 168 169 169 169 170 171 177 181 184 185 187 191 196 201 205 208 209 214 221 228 236
41 92 54 289 263 277 283 209 171 143 165 137 103 77 68 121 130 149 157 163 164 164 169 170 171 171 172 171 172 176 177 177 180 182 185 191 194 198 202 204 208 215 219 223 226 228 232 236 236
115 87 192 260 280 329 325 336 74 125 124 241 172 80 120 147 137 146 159 162 161 165 167 171 173 174 177 179 180 180 187 191 192 198 198 205 210 211 216 219 221 226 229 230 233 236 238 239 246
108 93 27 270 335 345 325 34 311 54 127 353 58 157 179 154 142 151 154 154 147 156 161 170 176 181 183 183 186 187 189 196 199 212 214 217 225 231 231 233 234 235 235 236 236 237 241 246 249
120 55 354 338 8 300 336 68 22 342 84 52 305 108 131 141 142 138 143 149 154 165 173 178 183 188 189 190 192 193 194 198 203 212 226 233 237 244 250 251 252 251 248 244 242 242 245 249 255
87 93 236 190 252 192 83 65 57 83 195 356 74 71 108 127 138 140 148 160 179 186 189 189 190 194 195 200 201 204 208 204 207 213 220 229 236 248 258 265 266 267 271 268 259 255 257 259 262
155 183 212 269 197 242 96 66 85 117 246 17 100 115 115 119 121 126 169 177 186 195 195 194 193 196 200 202 206 211 216 219 218 220 223 230 233 238 249 258 264 271 272 270 265 259 256 260 267
303 236 206 259 216 142 95 127 65 47 75 83 60 102 104 101 85 121 185 194 187 200 208 215 217 217 208 210 216 215 217 224 230 231 231 234 238 242 244 257 263 267 268 267 264 262 262 266 274
185 293 171 325 312 69 128 160 90 82 76 73 66 64 72 86 74 69 67 116 191 194 209 224 222 222 227 221 222 228 227 230 235 239 243 244 245 244 246 254 263 268 271 269 269 270 271 274 278
292 309 325 225 179 68 103 145 99 78 91 69 70 61 60 58 59 62 57 66 95 132 172 221 232 234 229 238 237 241 245 246 248 248 248 249 253 254 252 256 262 269 268 270 274 275 277 281 284
355 2 350 328 345 93 108 41 48 137 96 82 74 69 60 54 48 47 57 56 54 59 46 235 211 239 234 239 243 245 248 249 251 257 261 258 257 257 255 256 257 264 267 269 275 280 278 279 284
33 49 30 286 22 42 102 133 207 164 104 92 82 76 65 48 46 34 38 56 60 67 55 154 202 219 232 237 241 250 255 259 267 274 282 280 272 267 264 264 263 266 270 269 275 281 285 284 287
13 252 240 311 278 192 80 97 111 58 95 89 68 47 45 36 28 24 31 45 42 41 44 45 71 184 203 206 229 248 255 261 278 278 290 294 286 279 270 267 266 269 273 274 274 277 275 284 289
254 356 335 258 313 67 86 115 77 60 89 92 79 49 36 37 14 6 28 36 37 35 37 39 35 30 278 257 248 260 287 311 292 317 317 317 290 278 279 274 269 262 269 275 281 287 284 278 290
149 118 80 331 342 75 99 99 87 77 71 81 78 66 41 26 1 20 31 40 46 46 42 39 34 28 19 353 345 323 355 356 349 345 346 338 322 297 279 270 264 264 269 334 331 301 306 342 327
82 99 345 310 0 91 106 80 56 37 31 80 105 93 71 18 357 1 28 39 40 43 44 44 39 37 37 31 21 17 4 7 26 21 14 2 347 334 316 270 211 143 89 351 342 356 46 30 19
29 111 81 121 344 56 112 104 112 47 64 67 74 89 116 175 194 272 19 65 55 56 53 49 48 45 43 40 47 53 50 45 36 34 36 36 13 353 299 262 227 225 307 306 281 265 282 286 301
108 188 132 90 59 216 45 250 140 153 140 142 138 145 185 193 199 208 199 110 89 76 70 62 55 50 48 47 49 53 56 49 39 38 42 37 32 11 326 290 246 250 247 249 248 265 269 253 211
189 151 77 123 120 103 343 103 208 153 199 190 182 173 186 191 183 185 182 135 98 78 71 68 62 55 51 53 57 62 61 56 50 45 45 43 45 47 39 26 345 318 268 259 271 268 234 180 177
109 79 55 62 101 63 237 140 239 192 189 155 204 201 185 179 176 168 138 104 96 85 81 76 68 65 60 57 58 58 58 55 50 40 39 36 37 31 32 33 33 43 43 278 274 212 208 197 232
68 55 351 352 7 220 244 67 246 179 165 171 191 199 202 192 182 170 139 123 110 100 75 58 55 64 67 69 66 60 55 48 45 42 36 29 29 27 24 23 22 28 21 358 259 235 258 264 268
70 131 149 242 239 270 291 233 279 193 188 174 176 180 189 203 203 199 177 158 141 128 98 65 66 70 66 70 68 67 64 58 50 44 41 38 33 32 29 29 28 31 36 27 12 306 283 275 276
163 68 171 104 7 12 238 357 346 104 214 173 202 197 215 212 202 198 191 187 168 148 116 89 97 95 88 72 67 60 53 48 48 46 42 38 35 33 31 32 31 23 18 29 40 39 30 353 332
87 155 71 9 224 263 295 256 226 202 213 206 216 221 230 216 205 204 199 186 168 151 150 158 142 122 95 78 66 55 51 47 42 36 36 34 30 25 23 21 22 27 26 18 3 6 12 20 23
356 21 51 118 145 186 271 267 214 205 198 204 216 224 226 220 210 201 198 182 175 181 184 184 179 166 143 70 48 47 51 54 49 41 38 36 34 30 25 20 17 16 16 20 26 31 21 11 345
192 131 127 128 233 223 154 275 293 220 202 195 218 225 231 229 206 198 195 186 186 198 203 207 193 195 217 260 311 342 354 18 27 29 27 25 22 21 21 19 18 12 6 8 8 6 8 15 13